Wind_Speed
13 13 12 11 10 6 3 2 0 1 0 4 3 2 3 3 6 8 9 7 5 3 3 6 6 4 4 6 8 7 6 5 3 2 4 6 7 8 9 10 10 11 12 13 13 14 14 16 17 19 20 21 21 22 23 22 22 22 22 21 19 19 19 19 18 18 18 18 18 17 16 15 14 14 14 13 12 11 10 10 9 9 9 10 9 9 8 8 7 7 7 8 8 8 9 9 10
14 13 12 11 6 2 0 2 0 3 2 5 3 2 4 5 7 9 8 6 4 6 7 9 9 9 8 10 8 5 7 7 4 4 6 10 12 10 10 11 11 12 12 13 13 14 16 17 17 17 19 20 21 21 21 21 22 22 21 21 20 19 17 18 18 18 18 18 18 17 16 15 14 14 13 12 12 10 10 9 8 9 9 9 9 8 8 7 7 7 7 7 7 8 8 9 9
16 15 12 9 3 1 1 1 1 3 4 6 3 2 4 7 7 8 6 6 9 11 11 10 9 7 4 7 4 3 5 5 7 8 7 11 12 10 11 12 13 12 12 13 13 17 18 19 17 17 17 18 21 22 22 22 21 22 22 20 21 20 18 17 17 17 18 18 17 16 15 14 13 13 12 12 11 10 9 8 8 9 9 9 8 8 7 7 7 7 6 6 6 7 7 8 9
17 15 11 5 1 0 1 1 1 2 5 4 3 3 4 5 7 7 7 10 12 11 9 7 6 5 3 7 5 5 7 6 7 9 8 9 11 13 14 14 15 13 13 13 14 18 19 19 18 18 18 18 20 22 23 22 21 22 23 22 21 21 19 16 16 17 17 17 16 15 14 14 13 13 12 11 9 8 8 7 8 9 9 8 7 7 6 6 6 6 5 5 6 6 7 7 8
16 13 7 1 1 1 1 1 0 1 4 2 3 4 4 5 8 9 9 10 9 7 7 5 5 4 6 7 2 3 7 6 7 8 9 11 13 15 15 15 15 14 16 15 13 16 18 19 19 20 20 19 20 20 21 21 22 22 23 22 21 20 19 16 16 16 16 16 16 14 14 13 13 12 11 9 8 7 7 7 8 8 8 7 7 6 5 5 5 5 5 5 5 6 7 7 7
14 9 3 1 1 0 1 2 1 3 3 0 3 5 5 7 9 11 11 8 6 6 6 6 7 7 6 6 4 5 5 6 7 8 12 14 15 16 16 16 15 15 17 16 15 16 17 18 20 21 21 21 21 21 21 22 22 21 21 20 19 18 17 16 16 16 15 15 15 14 13 13 12 11 10 9 8 7 6 6 7 7 7 6 6 5 5 5 4 4 5 5 6 6 7 6 6
11 6 2 1 1 1 0 3 2 2 3 2 0 5 7 8 9 12 11 8 7 6 6 8 10 9 6 3 4 6 3 5 8 9 13 16 16 16 16 15 15 15 15 16 17 18 18 18 19 21 21 22 22 22 22 21 21 20 19 18 18 17 16 16 16 16 15 14 14 13 13 12 11 10 9 8 7 6 6 6 6 6 6 6 5 4 4 4 4 5 5 6 6 7 7 7 6
8 3 0 1 0 0 1 4 2 2 2 1 1 5 8 9 10 10 10 6 6 6 8 9 9 9 6 2 4 5 5 7 10 13 17 18 17 16 16 15 15 15 16 16 17 19 20 19 19 19 20 22 21 21 21 20 19 19 19 18 17 16 16 15 15 15 14 13 13 12 11 11 10 9 8 7 6 6 6 6 5 5 5 5 4 4 4 4 4 5 6 6 7 7 8 7 7
4 1 0 1 0 2 2 3 2 2 2 3 4 6 8 9 8 8 9 6 7 9 8 6 4 7 7 5 6 4 6 10 14 17 18 18 17 15 15 15 16 16 16 16 17 19 20 19 19 19 19 20 20 20 19 19 18 18 18 17 16 16 15 14 14 14 13 12 12 11 10 10 9 8 7 7 6 6 5 5 5 5 4 4 4 4 5 5 5 5 6 6 7 8 8 9 9
2 2 1 1 1 3 3 2 1 2 3 4 5 7 9 8 7 7 8 8 9 9 7 5 5 9 10 8 6 3 6 13 17 17 17 18 16 14 14 14 15 16 16 16 18 19 19 19 18 18 18 19 19 18 18 18 17 17 16 16 15 14 14 13 13 13 12 12 11 10 10 9 8 8 7 7 6 6 5 5 4 4 3 3 4 4 5 5 5 5 5 6 7 8 9 9 8
1 1 0 1 2 3 2 3 2 3 4 5 5 7 7 7 8 7 8 9 7 8 8 7 9 13 11 7 4 5 9 14 17 18 17 17 16 15 15 14 15 16 16 16 18 19 18 18 18 17 17 17 17 17 17 17 16 16 16 15 14 14 13 13 13 12 12 11 11 10 9 9 8 8 7 7 6 5 5 4 3 2 2 3 3 4 4 3 3 4 5 6 8 8 8 8 7
1 2 1 1 2 2 3 4 4 4 5 5 6 6 6 7 8 8 10 10 7 9 7 4 9 11 10 7 4 7 11 14 16 18 17 16 16 15 15 15 15 15 16 16 17 19 19 18 17 16 16 16 16 16 16 16 16 15 15 14 14 14 13 13 13 12 12 11 10 10 9 8 8 8 7 7 6 5 5 4 2 2 3 3 3 3 2 3 3 3 5 7 8 8 9 9 8
1 2 1 1 1 2 5 4 4 5 4 5 6 6 7 7 7 9 10 10 8 8 5 5 11 9 7 7 5 8 12 14 16 17 17 16 16 15 14 15 15 15 15 15 17 18 18 18 17 16 15 15 15 15 15 15 15 15 14 14 14 14 13 13 12 11 10 10 9 9 8 8 7 7 7 6 5 5 4 3 2 1 2 2 2 3 4 5 4 4 5 6 8 8 9 10 9
3 1 1 1 1 3 5 4 5 5 4 6 6 7 7 5 5 8 10 12 7 4 7 9 11 8 8 8 6 8 11 16 17 16 16 15 15 14 14 14 15 16 15 14 16 16 16 17 16 16 15 15 15 15 14 14 14 14 14 13 13 12 12 11 11 10 9 9 9 8 8 7 7 7 6 5 5 4 3 2 1 1 1 2 3 4 6 7 6 6 6 6 8 8 9 10 10
3 1 0 2 3 4 3 2 6 5 4 7 7 8 7 3 6 8 7 9 6 6 10 9 6 5 8 9 8 10 14 19 18 16 16 15 15 14 13 13 14 15 14 14 15 15 15 15 15 15 15 15 15 15 14 14 13 13 12 12 12 11 11 11 10 10 9 9 8 7 7 6 6 6 5 5 4 4 3 2 1 1 2 4 4 6 7 7 8 8 8 8 9 8 9 10 10
2 1 1 2 4 5 4 3 5 4 4 8 9 10 7 5 8 6 2 4 7 10 8 7 3 0 7 8 9 15 19 21 19 17 17 16 15 13 13 12 13 14 13 14 14 15 15 14 14 14 15 14 14 14 13 13 12 11 11 11 11 11 11 10 10 9 8 8 7 7 6 6 5 5 5 4 4 3 2 2 1 1 3 5 6 8 9 9 10 10 10 10 10 9 9 9 9
2 2 1 2 4 5 6 7 6 4 6 10 11 11 9 8 7 3 4 6 10 10 5 6 2 1 8 9 14 21 21 21 19 18 18 16 15 14 13 12 13 13 13 13 13 14 15 15 14 13 14 13 13 13 12 11 11 11 10 10 10 10 10 9 9 8 8 7 7 7 6 6 5 5 5 4 4 3 3 2 2 2 4 8 8 10 11 11 10 10 11 11 11 10 9 8 7
3 2 2 3 4 5 7 10 8 6 9 12 13 13 11 11 9 5 7 8 10 9 5 6 5 6 10 15 21 23 21 22 20 19 18 17 15 15 15 14 14 14 13 13 13 13 14 14 14 13 14 13 12 12 11 11 11 10 10 9 9 9 9 8 8 7 7 7 7 7 6 6 5 5 5 5 4 4 4 3 2 2 5 11 10 10 11 11 10 10 10 10 10 10 9 7 7
4 1 2 3 5 5 6 11 9 7 11 14 13 13 11 11 11 8 8 10 11 9 7 7 8 11 14 19 23 22 22 22 20 19 19 18 17 17 16 15 15 15 14 14 13 14 14 14 14 14 13 13 13 12 12 11 11 10 10 9 9 9 8 8 7 7 7 7 7 7 6 6 6 5 5 5 4 4 5 4 4 3 6 11 11 10 11 10 10 9 8 9 10 11 10 9 8
3 2 4 4 6 6 5 11 11 8 13 15 13 12 10 11 11 8 9 13 12 10 10 10 11 13 16 19 22 22 23 21 20 19 19 19 18 18 17 16 16 16 15 14 14 15 14 14 15 15 14 14 14 13 12 12 11 10 10 9 9 9 8 8 8 8 8 7 7 7 7 6 6 5 5 5 6 5 6 5 5 5 6 9 11 11 11 10 9 9 8 9 10 11 11 11 9
2 4 6 2 5 6 7 13 12 9 14 16 14 12 11 11 10 8 11 13 10 10 13 14 15 17 18 19 21 23 22 21 20 19 19 19 18 17 16 15 14 14 14 13 13 15 15 14 15 15 15 15 14 13 13 12 11 11 10 9 9 9 9 8 8 8 8 8 8 8 7 6 6 6 6 6 7 7 7 7 7 7 6 7 9 10 10 9 9 9 10 10 10 10 10 10 9
2 5 5 1 5 5 8 13 12 11 13 14 15 14 12 11 9 10 15 12 7 9 12 14 16 18 20 20 21 21 20 21 20 19 19 19 19 17 16 15 14 14 14 14 14 14 15 15 15 15 15 15 15 14 13 12 12 11 11 10 9 9 9 9 9 9 9 9 9 9 8 7 7 7 7 7 7 7 8 8 8 7 6 6 7 8 8 8 9 9 10 10 9 9 9 9 8
4 5 2 2 5 4 7 12 13 14 14 15 15 13 12 12 9 11 16 8 1 3 11 13 15 18 21 22 20 19 19 19 19 20 20 19 20 18 17 17 16 17 16 15 15 14 15 16 16 16 15 15 15 15 14 13 13 12 11 11 11 10 10 10 10 10 10 10 10 9 9 8 8 8 9 8 8 8 8 8 8 7 6 6 7 7 8 8 8 9 9 9 9 9 9 9 8
5 4 1 3 6 6 9 14 15 17 17 15 13 12 15 15 10 11 15 5 4 3 12 14 16 19 21 20 20 19 19 20 20 21 20 19 19 18 16 16 16 17 16 16 16 15 16 16 16 15 15 16 16 16 14 13 13 12 12 11 12 12 11 11 12 11 11 11 11 10 10 9 9 9 9 9 9 8 8 8 8 7 6 6 6 7 8 8 8 8 9 10 10 10 10 10 10
5 6 2 1 4 6 11 14 16 16 13 12 13 14 15 12 8 12 14 4 2 9 14 15 17 18 18 19 20 18 18 19 20 19 18 16 16 16 15 15 16 16 17 17 17 17 17 17 16 15 16 16 15 15 15 14 13 13 13 12 12 13 13 13 13 12 12 12 12 11 10 10 10 10 10 10 10 9 9 9 8 7 6 6 7 7 8 8 9 9 10 10 11 11 12 12 12
6 5 1 2 5 8 12 14 16 14 9 12 15 13 10 7 7 10 11 4 7 12 15 16 17 17 17 17 18 17 16 18 19 19 18 15 16 17 17 16 17 17 18 17 17 17 17 18 18 17 17 15 15 15 14 14 14 13 13 14 13 13 14 15 14 14 13 13 13 12 11 10 11 11 11 11 10 10 11 9 8 7 7 7 8 8 8 9 10 11 11 12 12 13 12 12 12
3 3 0 3 6 9 13 14 15 12 10 15 15 11 9 8 6 7 8 8 11 13 15 16 17 17 17 16 16 16 16 19 20 19 18 17 17 18 19 18 18 18 18 18 18 18 18 18 18 18 17 16 16 15 15 14 13 13 13 14 14 14 15 15 15 15 14 14 13 12 11 11 11 11 12 12 12 12 11 9 8 8 8 8 9 9 9 11 11 11 12 12 13 14 12 11 10
4 7 5 3 6 8 11 14 15 11 9 12 13 10 7 7 7 7 9 12 13 15 15 17 16 15 16 16 15 13 15 19 20 19 19 20 19 19 20 20 20 18 18 20 19 18 18 19 19 18 17 16 16 15 15 14 14 13 13 13 14 15 15 15 15 15 15 14 13 12 12 12 12 12 12 12 13 13 11 9 9 9 9 10 10 10 12 13 12 12 13 12 13 12 10 9 8
5 7 6 6 7 8 9 11 14 12 9 12 13 8 6 10 9 6 12 13 13 15 15 16 15 14 14 15 13 12 14 17 18 19 20 21 19 19 20 20 21 19 18 19 19 18 18 19 19 18 18 17 17 17 16 15 14 13 13 13 14 17 17 17 17 16 16 15 13 13 13 12 12 13 12 13 14 13 12 11 11 11 12 12 12 13 14 12 11 11 11 10 10 9 8 8 8
6 5 5 8 6 6 7 7 13 11 9 16 14 5 9 14 9 8 13 14 14 14 14 15 13 12 13 13 12 12 14 16 18 19 19 19 18 19 19 19 21 20 18 18 20 21 19 19 20 19 19 18 17 17 16 15 14 13 13 15 17 19 19 18 18 17 16 15 14 14 13 13 13 12 13 13 13 13 12 12 11 12 12 12 13 14 11 8 7 7 7 7 7 7 8 7 7
6 5 4 6 5 7 7 7 14 10 7 16 14 7 7 11 10 10 13 16 16 15 14 15 13 12 12 12 13 12 14 16 19 20 19 19 18 18 18 19 20 20 17 18 22 24 23 23 23 22 21 20 19 17 16 16 15 15 16 18 19 19 19 19 18 17 16 15 15 15 14 13 13 13 13 13 12 12 12 13 13 13 14 12 12 10 7 5 5 5 5 5 6 6 6 7 7
5 4 4 5 4 7 7 7 14 11 8 14 13 7 6 6 11 13 13 15 17 15 15 15 14 14 13 12 12 12 12 16 19 20 20 20 19 17 18 19 20 20 19 22 25 25 25 26 26 25 24 24 22 21 19 17 18 19 20 20 20 19 18 18 18 17 16 16 15 15 15 13 13 14 13 13 12 12 12 14 14 13 12 10 8 6 5 5 5 5 5 5 6 6 6 6 7
3 2 5 7 5 6 7 7 11 9 10 14 13 7 4 2 10 15 15 16 16 14 15 16 15 14 13 11 11 11 11 14 17 19 20 20 20 19 19 19 21 21 23 25 26 27 27 27 26 26 26 25 25 24 23 21 20 21 21 19 19 18 18 17 17 16 16 16 15 15 15 14 14 15 15 15 14 14 12 11 8 6 6 6 5 4 5 5 5 5 6 5 5 6 6 6 7
4 2 3 6 7 8 8 8 9 10 12 15 13 9 5 2 8 14 16 17 17 14 15 16 14 13 13 11 11 11 11 12 14 18 21 21 20 20 19 20 21 22 23 26 27 28 28 27 27 26 26 25 25 25 24 23 22 22 21 20 19 18 17 17 16 16 16 16 15 15 15 14 15 16 16 16 14 12 9 5 4 3 4 4 3 3 5 6 6 6 7 6 6 7 7 7 7
8 6 5 5 6 8 9 9 11 14 14 15 14 13 12 4 8 13 15 17 16 15 15 15 14 14 13 12 12 12 12 13 14 18 22 21 20 20 20 20 20 20 21 23 26 28 28 27 27 27 27 26 26 25 25 23 22 19 17 17 18 18 18 17 17 17 17 16 16 16 15 15 17 16 15 14 10 6 6 5 5 4 3 2 2 4 5 6 7 7 7 7 7 8 8 8 7
12 9 7 8 9 9 9 7 10 16 13 14 16 15 15 8 8 12 13 15 15 14 13 12 13 13 13 12 12 12 14 14 15 18 21 21 21 21 20 20 19 20 20 21 24 26 26 27 27 26 27 27 25 24 23 21 18 15 15 16 18 19 19 19 18 18 17 17 17 16 17 17 17 15 11 9 7 7 8 7 6 5 3 2 3 4 5 6 7 9 8 8 9 8 8 7 6
12 8 6 10 11 9 8 7 9 15 11 13 15 11 10 6 6 11 12 14 14 14 14 13 13 13 12 13 13 14 15 14 14 18 19 20 21 21 20 20 19 19 19 20 23 25 26 27 26 26 25 23 22 21 19 18 17 16 16 17 19 19 20 21 19 19 19 18 17 17 17 17 15 12 9 8 8 8 9 8 7 5 4 3 4 6 7 8 9 9 9 9 9 8 7 6 5
10 10 8 9 9 6 7 7 9 14 10 9 9 8 9 5 4 9 11 14 16 17 17 15 15 14 12 14 16 15 13 11 12 15 18 19 20 21 21 20 20 20 21 22 23 25 27 27 27 28 26 21 19 19 18 17 19 19 19 19 19 18 19 21 19 20 20 18 18 17 16 14 12 10 9 9 9 9 9 8 7 6 5 5 6 8 9 10 9 9 9 9 8 7 6 5 4
9 8 7 8 6 3 5 6 8 11 9 7 6 9 11 5 4 9 13 15 14 15 16 15 15 15 13 15 15 14 13 12 13 15 17 20 21 22 21 20 22 22 22 23 25 26 27 27 27 28 29 25 23 23 21 21 22 22 22 22 21 19 19 21 19 19 20 19 18 16 14 13 12 11 11 10 10 10 10 9 8 7 6 7 8 9 10 10 9 8 7 8 7 5 4 3 3
7 7 8 7 7 7 5 6 8 9 4 2 5 7 8 4 5 9 13 15 12 12 14 13 13 14 15 16 14 14 15 14 15 15 16 19 21 21 21 21 22 22 22 23 25 26 26 29 30 30 30 29 29 29 27 27 26 25 24 24 23 20 19 19 19 20 19 18 17 15 14 14 12 12 11 11 12 12 11 10 9 8 8 8 8 8 9 9 8 6 6 5 5 5 4 3 2
6 8 10 7 9 11 7 7 9 7 2 2 5 5 8 7 9 10 11 13 13 11 13 14 14 15 15 14 14 14 15 15 15 16 16 17 20 21 22 22 22 22 22 23 26 28 29 32 33 32 31 31 31 31 29 28 27 25 22 20 19 18 17 16 16 17 18 18 16 15 15 14 13 12 12 12 12 12 12 12 11 10 9 8 8 7 7 7 6 6 5 4 3 4 3 3 2
5 8 11 8 11 11 7 11 10 5 5 6 7 6 7 7 11 12 9 11 15 12 14 16 15 15 15 14 14 15 15 15 14 15 15 16 19 20 21 22 22 23 24 26 29 32 34 35 34 33 32 32 32 31 30 29 28 27 23 18 16 16 16 16 15 15 16 18 18 17 15 14 13 12 12 13 12 12 12 12 12 10 8 7 7 6 5 6 5 5 5 3 3 4 3 3 2
5 7 9 8 9 10 11 14 11 5 6 8 12 10 7 4 8 11 9 11 15 14 15 18 16 15 16 14 14 15 15 15 14 15 15 16 18 19 21 23 24 25 26 28 31 34 36 36 35 34 33 33 33 32 31 30 29 29 27 22 19 18 17 17 18 18 17 17 17 16 15 14 14 13 13 13 12 11 11 11 10 8 7 6 5 5 5 5 4 4 4 2 2 2 2 3 2
4 5 11 11 9 11 14 13 10 6 2 5 12 10 7 7 5 7 10 12 13 15 17 18 17 17 18 17 17 16 16 16 14 15 15 16 19 21 23 24 27 28 27 28 31 34 36 36 36 35 34 34 34 33 32 31 31 30 29 26 21 21 20 18 20 20 17 16 15 15 15 14 14 13 12 11 10 10 10 10 9 7 6 5 4 4 5 5 4 4 3 2 2 1 2 2 2
2 4 9 11 10 12 14 12 9 5 3 4 8 7 5 8 4 5 9 11 12 17 20 20 20 20 19 19 19 19 18 17 16 16 17 17 20 23 25 25 28 29 27 30 34 35 36 37 36 35 35 35 34 34 33 32 32 31 30 27 23 23 22 19 20 20 18 16 15 15 15 15 14 13 12 11 10 10 10 10 9 7 5 5 5 5 5 5 4 4 3 2 2 1 1 1 1
2 7 7 5 5 8 9 8 5 4 5 8 9 10 7 8 5 5 6 8 12 16 17 18 20 20 19 19 20 20 17 15 16 17 16 19 22 25 25 25 27 27 28 34 37 35 35 36 35 35 35 35 35 34 34 33 33 32 31 30 26 24 24 22 21 20 18 17 17 17 17 17 16 14 13 12 11 10 10 11 10 8 6 6 6 6 6 6 5 5 4 3 2 2 1 1 2
9 10 8 7 4 3 3 1 2 4 6 8 10 15 11 8 6 6 7 9 12 12 12 14 17 19 20 18 18 19 17 14 15 16 16 19 22 23 22 23 25 26 27 31 33 32 33 34 35 35 35 35 35 34 34 34 33 33 33 33 30 27 27 25 23 21 20 19 19 20 20 19 17 16 15 14 12 10 10 12 11 9 8 7 6 6 6 5 5 5 4 4 3 2 2 2 3
9 7 7 7 4 2 3 2 2 5 6 6 8 14 13 11 7 6 9 12 12 12 12 14 17 19 20 19 18 18 16 15 15 14 15 16 17 17 19 22 23 23 24 27 29 29 30 33 35 35 35 36 36 35 35 34 34 35 34 34 32 30 29 28 26 24 23 22 22 23 22 21 19 18 16 15 13 11 11 12 12 11 10 9 7 6 6 6 5 5 4 4 4 3 3 3 3
8 6 8 7 3 4 4 3 4 5 5 2 3 9 10 10 10 7 8 11 13 14 14 14 16 18 18 18 19 16 14 16 16 14 14 14 13 15 19 22 21 22 24 26 27 26 27 32 34 35 36 37 37 36 36 36 35 36 35 35 34 32 32 30 28 27 25 24 24 24 24 23 21 20 18 16 15 13 12 13 13 13 12 11 9 7 7 7 6 5 4 4 4 4 3 3 3
9 8 9 8 6 6 6 3 1 4 5 1 4 8 7 5 8 12 14 17 17 14 13 13 10 9 11 15 16 15 14 16 15 14 14 14 13 16 20 22 22 23 26 27 28 27 27 30 33 35 36 37 38 38 37 37 37 37 37 36 35 34 33 31 30 29 27 26 25 26 26 24 23 21 20 18 16 15 14 13 14 13 13 12 10 8 8 8 7 6 5 5 5 4 4 4 4
9 8 7 8 6 6 5 5 4 4 3 1 5 6 6 4 2 5 12 15 13 11 11 11 7 5 7 10 13 15 16 15 14 14 16 15 16 19 21 22 23 25 27 28 27 27 28 30 34 36 35 36 38 38 38 38 38 38 37 37 36 35 34 32 32 30 28 27 26 26 26 26 24 22 20 19 17 16 15 14 14 14 14 13 11 10 9 8 8 8 7 6 6 6 6 5 5
6 4 6 8 6 5 3 2 3 3 2 2 5 4 4 3 5 7 7 8 10 10 10 10 11 10 8 9 13 15 15 16 15 15 16 16 17 20 21 22 24 26 27 27 26 28 30 31 35 38 38 38 39 38 39 38 38 38 38 38 37 36 35 33 32 30 28 27 25 25 25 25 24 22 20 18 17 16 15 14 14 15 15 14 12 11 10 9 10 10 9 8 7 7 7 7 7
4 5 7 4 3 5 4 1 1 2 4 4 4 4 3 2 8 9 7 8 11 10 9 11 12 11 11 11 13 14 15 16 16 16 16 16 17 20 22 24 25 26 26 26 29 35 37 35 35 36 36 36 38 40 40 39 38 38 38 38 37 36 35 34 32 30 28 27 24 24 25 24 23 21 19 18 17 17 16 15 15 16 16 14 13 13 12 10 10 10 10 9 8 8 8 8 8
5 7 8 4 2 2 2 3 3 3 7 4 4 7 6 3 4 3 2 7 12 11 11 11 8 10 13 13 13 15 16 17 16 16 16 15 17 19 23 26 27 28 29 30 36 40 39 36 36 35 34 35 39 40 39 38 39 39 38 38 37 37 36 33 32 30 28 26 24 24 25 24 22 20 18 18 18 17 16 15 16 17 16 14 13 13 13 11 11 11 10 10 10 10 10 10 10
1 4 9 6 3 5 2 4 5 5 7 4 4 7 6 6 5 2 4 6 8 11 10 8 8 11 13 13 14 15 15 15 15 16 15 14 16 19 23 26 26 28 29 32 35 34 32 32 34 35 37 40 41 38 36 38 39 39 38 37 35 35 35 33 31 29 26 25 24 25 25 24 22 20 19 18 18 18 16 16 17 17 16 15 14 14 13 13 12 11 11 11 11 11 12 11 10
1 3 8 3 3 5 4 4 4 6 7 4 5 6 4 6 6 6 10 8 7 11 9 7 11 13 13 12 13 13 13 14 14 15 15 16 17 21 26 27 27 28 29 30 29 28 29 31 32 34 35 36 37 37 38 39 39 38 36 35 35 35 35 33 31 29 26 24 24 25 25 24 22 20 19 19 19 18 17 17 18 17 16 15 14 14 14 14 13 12 12 11 11 12 12 11 10
5 7 8 4 2 1 3 3 2 4 6 5 6 7 4 4 5 9 12 10 9 11 10 8 9 11 13 12 12 12 13 13 14 14 15 17 18 22 26 26 26 26 26 26 26 27 29 29 29 32 31 30 32 36 38 38 36 34 30 31 35 35 33 32 29 27 26 25 25 25 25 23 21 19 19 20 19 18 17 17 18 17 16 15 14 14 14 13 13 12 13 13 13 13 13 12 12
10 9 8 9 7 4 5 6 3 2 4 4 5 7 5 5 6 9 10 10 11 11 10 8 8 9 10 10 11 12 12 13 15 15 16 16 16 19 23 24 23 23 23 25 26 26 28 27 28 30 30 29 31 33 36 37 33 28 24 26 32 33 31 30 29 28 27 25 25 26 24 22 21 20 19 20 19 17 17 17 17 17 16 15 14 14 13 13 13 13 13 14 14 14 14 15 15
Wind_Direction
147 148 147 144 144 160 184 244 166 68 60 92 82 104 98 96 124 136 137 145 141 102 85 94 103 90 78 93 106 98 44 13 2 20 87 115 130 119 124 125 123 124 120 127 136 141 137 132 130 129 131 131 134 140 143 141 139 140 139 137 134 135 138 137 136 136 135 135 136 136 135 133 131 127 124 121 119 118 116 113 110 107 103 100 97 94 89 83 77 70 64 58 55 50 48 49 49
149 144 141 140 149 200 244 282 31 91 100 92 78 70 112 141 150 148 146 147 116 106 109 99 91 74 78 97 108 105 49 27 45 75 93 124 121 115 130 126 126 126 122 128 134 137 135 135 133 131 133 132 131 135 143 143 141 142 140 136 131 131 134 136 136 137 137 137 138 137 137 135 131 127 125 126 125 123 120 115 111 109 107 103 99 96 91 83 74 67 61 56 52 49 46 44 43
148 142 142 150 165 273 298 285 74 98 87 89 88 85 139 154 154 147 142 125 117 123 115 104 93 65 81 108 76 53 66 63 93 101 114 132 124 125 136 130 128 124 124 127 130 134 135 138 138 136 135 133 135 139 146 146 142 142 139 136 134 133 134 137 139 140 140 138 139 138 137 134 132 130 130 131 128 126 123 118 115 113 109 105 101 96 89 80 72 66 60 54 50 48 44 41 40
146 145 145 166 204 254 295 24 66 85 90 98 106 126 164 152 142 128 122 124 130 132 117 109 81 26 40 91 69 69 94 99 104 109 123 132 128 135 138 133 128 124 126 124 126 132 136 139 139 139 135 135 141 143 145 144 143 142 139 137 136 134 134 140 144 143 141 139 139 138 137 135 133 134 135 135 131 129 125 119 115 113 110 106 101 94 86 80 73 66 60 52 47 43 41 38 38
143 145 143 242 306 32 322 81 67 58 89 110 120 146 175 140 134 120 120 127 133 132 118 118 91 61 61 69 49 99 108 114 117 115 120 123 127 137 136 133 130 127 129 125 125 128 132 135 137 137 135 136 140 140 140 139 140 140 136 136 135 132 135 144 146 142 140 140 140 139 137 136 136 136 138 137 135 131 124 118 116 114 112 106 99 91 85 80 73 64 58 51 44 38 36 32 32
137 141 129 330 36 90 270 109 102 74 78 270 122 144 162 140 135 125 123 115 104 104 105 104 108 115 85 65 57 92 118 121 126 127 126 130 134 138 136 135 130 127 131 131 130 129 129 133 136 136 133 134 137 138 137 137 138 136 133 133 131 133 141 146 144 140 139 140 140 141 140 139 138 139 141 140 137 133 125 121 119 118 113 106 97 88 79 70 64 56 47 40 35 30 30 27 23
142 146 120 160 121 211 234 88 87 77 81 293 90 143 153 141 136 132 132 123 106 94 96 107 117 114 89 89 86 75 85 117 132 136 134 135 137 137 136 136 130 129 132 133 134 135 134 135 138 135 135 135 137 139 137 137 136 134 133 132 134 139 145 144 142 141 141 142 142 143 143 142 143 145 146 144 141 137 130 125 123 121 113 105 93 80 72 61 53 45 37 30 24 21 22 20 15
148 146 28 240 160 68 81 84 79 53 72 359 62 137 145 141 143 143 142 136 125 115 112 124 126 105 84 116 109 74 76 109 126 131 136 137 138 137 136 136 131 131 133 133 133 136 139 139 138 136 139 139 139 139 138 138 135 135 137 138 141 144 144 142 143 143 144 145 145 145 145 146 149 151 151 150 145 140 136 132 130 124 114 102 85 71 61 51 42 34 27 19 14 13 11 8 5
134 10 181 250 288 102 97 79 83 67 59 99 114 127 133 139 146 147 140 121 123 123 117 140 144 110 109 107 105 94 92 111 123 129 137 138 139 138 137 138 134 135 134 133 132 136 141 141 140 140 143 142 141 141 139 139 137 139 141 141 144 145 144 144 146 147 150 150 150 149 150 152 153 156 154 154 150 147 145 140 137 127 113 89 68 55 45 34 27 23 15 9 8 7 4 1 357
126 350 160 240 158 117 113 86 90 94 81 108 121 133 137 144 145 140 137 125 126 120 108 114 106 119 126 113 105 112 118 126 130 133 140 140 141 138 138 140 138 138 135 135 135 137 141 142 143 142 142 141 142 141 139 141 141 144 143 143 143 144 144 143 145 147 150 150 151 152 153 155 155 158 156 156 154 154 152 146 141 126 102 72 52 40 32 19 13 10 4 360 360 1 360 356 349
161 55 188 236 146 132 136 117 114 109 112 121 122 138 145 147 140 133 129 123 122 118 121 115 108 120 120 113 110 115 131 140 140 140 144 144 144 140 139 141 142 142 138 138 138 139 142 144 146 143 140 139 141 141 142 145 147 148 145 145 144 143 143 144 145 145 148 149 150 152 152 154 155 157 156 157 156 156 154 148 139 114 78 57 39 25 17 360 355 350 352 352 351 355 346 338 340
208 146 206 207 137 130 137 127 131 127 137 147 146 153 152 153 148 144 137 128 129 128 132 140 133 129 117 121 127 132 146 149 146 145 147 147 146 144 142 144 146 146 143 141 141 143 143 144 146 144 140 139 142 142 144 147 147 148 146 147 147 147 148 148 149 148 149 151 152 153 153 154 155 158 159 161 159 158 156 150 144 99 58 45 20 359 338 312 329 334 348 350 344 343 330 326 337
205 155 211 171 68 124 137 132 137 141 160 173 162 159 154 161 163 154 142 132 139 134 122 140 145 134 114 126 133 147 157 156 151 148 149 148 149 148 145 147 149 151 149 146 145 145 146 145 146 145 144 143 144 144 146 149 149 150 150 151 152 153 153 152 153 153 153 153 155 156 156 158 160 161 163 165 164 163 160 159 154 88 51 26 348 328 311 310 321 325 339 342 333 329 323 327 337
187 174 260 96 94 144 135 129 153 168 174 171 156 152 158 162 160 152 144 138 133 114 114 129 140 126 118 133 147 164 165 160 154 149 151 149 150 150 148 150 152 154 153 150 149 148 149 148 147 149 150 150 149 150 151 153 154 154 155 156 158 159 159 159 161 162 161 161 163 164 163 165 166 165 168 170 170 171 173 179 180 68 3 324 323 312 307 311 311 311 320 322 318 321 324 329 337
187 163 136 110 140 154 158 155 169 186 167 166 160 152 154 127 147 154 154 143 117 114 121 128 143 127 146 162 170 171 163 159 156 151 152 149 149 149 149 152 153 157 156 154 154 153 154 152 152 153 155 156 156 157 157 159 158 158 160 160 161 163 164 164 165 166 167 167 169 171 168 169 169 171 173 176 181 187 188 197 235 317 317 318 320 302 296 300 300 303 310 310 312 319 321 324 333
203 184 130 131 159 171 195 178 164 186 169 165 158 152 144 123 153 156 146 118 116 139 136 138 163 104 165 170 161 159 157 156 155 150 149 147 147 148 151 155 155 159 160 160 160 160 161 159 158 159 160 161 161 161 160 162 163 164 165 165 165 165 165 165 166 166 166 168 170 173 171 172 175 179 180 186 196 203 207 226 267 329 320 308 301 289 284 289 294 301 307 308 313 319 317 318 326
200 217 195 154 181 191 185 175 170 171 159 159 158 163 152 138 155 117 108 121 131 148 135 129 117 75 154 145 142 150 151 153 152 149 150 150 151 153 157 161 161 164 166 167 167 166 166 166 164 164 167 167 166 165 163 165 167 168 167 167 166 165 166 165 165 165 166 169 172 176 178 181 186 190 191 198 208 221 233 250 288 345 306 281 275 279 284 291 296 303 306 308 315 320 318 319 323
189 194 215 190 193 194 185 185 175 148 156 164 167 172 162 151 156 133 129 130 137 145 122 119 94 97 126 126 136 146 150 153 154 154 155 158 160 162 165 168 169 171 172 174 175 173 172 174 173 171 173 173 171 170 169 169 169 171 170 169 169 170 170 168 168 170 172 175 180 184 189 195 199 202 204 210 217 233 244 253 271 303 286 277 278 285 291 298 304 306 305 308 314 317 317 318 319
192 168 218 221 197 187 191 186 170 158 163 162 167 172 167 156 154 158 155 144 152 150 128 127 114 114 122 130 140 148 153 156 159 161 161 164 168 169 171 173 175 177 177 178 181 182 179 180 181 179 179 179 178 177 176 176 175 175 174 175 174 175 176 175 178 179 183 187 191 194 199 207 211 215 221 229 238 247 255 260 265 272 278 284 294 300 299 303 307 305 304 310 314 319 323 322 319
198 202 234 234 192 185 193 186 178 171 157 156 165 168 169 158 153 176 168 154 170 169 151 155 145 139 139 141 148 153 157 161 164 166 166 169 173 174 174 176 178 180 181 181 185 187 185 185 187 186 186 185 183 184 184 184 184 181 181 183 182 182 184 186 188 190 196 198 202 206 209 218 222 231 241 248 257 261 268 275 280 284 282 287 296 300 301 305 309 307 308 315 319 323 326 325 322
167 200 241 221 173 191 192 185 178 166 158 158 159 161 168 162 159 176 159 157 188 193 177 170 160 152 149 149 154 158 162 165 168 170 171 172 176 177 178 179 181 182 182 185 189 191 189 188 189 189 191 191 190 190 190 192 191 189 189 190 190 191 192 194 198 200 205 209 212 217 220 228 233 242 250 254 262 267 276 285 290 292 288 286 290 293 295 299 304 305 309 316 320 322 322 323 322
172 214 253 165 173 201 181 174 166 155 156 154 157 166 164 158 170 177 168 170 191 197 188 172 159 155 154 154 156 161 165 168 172 175 175 176 178 179 180 181 184 185 187 191 192 193 193 193 192 192 194 195 195 195 195 197 197 196 196 196 198 201 202 203 206 208 213 217 220 226 230 237 242 248 252 255 260 268 279 287 291 293 294 296 292 289 289 293 296 299 306 312 316 317 315 316 315
221 223 259 192 204 217 167 163 158 150 155 162 166 164 148 159 180 180 183 191 3 176 175 162 156 156 154 154 157 164 169 172 176 178 179 179 180 182 181 181 185 187 191 195 193 195 196 197 197 196 197 199 199 199 200 202 202 203 203 203 205 207 210 211 215 218 220 222 226 231 236 243 249 253 257 258 263 271 280 288 294 295 297 300 293 287 286 290 293 295 303 307 306 305 301 303 304
233 226 258 229 222 213 168 160 160 157 165 167 159 151 157 175 176 175 193 218 359 139 153 151 151 154 155 156 163 168 171 176 179 181 182 182 184 185 183 183 187 189 193 196 195 197 197 198 199 199 200 202 202 203 204 206 207 209 209 209 211 214 217 220 223 224 226 229 232 235 239 247 253 257 261 264 269 276 285 291 293 291 292 296 294 293 290 287 286 288 293 297 298 298 297 298 299
218 223 240 211 211 195 167 160 164 161 160 151 149 161 172 176 154 171 195 205 85 143 140 145 149 154 161 163 167 170 172 178 180 181 183 185 186 185 186 189 191 194 196 197 197 199 200 199 199 201 203 203 204 205 206 209 211 212 213 212 215 218 221 225 227 228 232 235 237 240 244 251 256 262 265 269 274 282 289 289 285 283 285 293 300 300 291 285 281 279 283 287 291 295 297 297 296
199 214 242 214 199 176 166 163 164 157 146 148 156 167 166 151 136 174 197 158 126 140 139 148 154 159 166 168 170 172 173 177 180 183 185 186 187 189 192 193 194 198 198 198 199 201 202 201 202 203 203 204 205 205 208 211 213 214 216 216 218 220 223 228 231 232 237 240 243 245 247 255 260 265 268 274 281 288 290 284 277 278 283 291 299 299 294 290 284 281 282 285 288 291 294 295 296
155 173 24 222 186 164 167 161 159 150 148 162 160 158 157 152 164 193 194 158 143 144 146 153 160 165 169 171 173 174 176 180 182 183 185 188 191 194 194 195 198 200 199 199 200 201 201 201 204 205 204 205 206 208 210 212 214 216 218 220 222 223 226 231 234 236 239 242 247 250 253 258 262 267 272 279 286 290 289 282 278 280 285 292 297 298 296 295 291 289 289 290 291 292 295 296 296
136 141 85 117 145 147 163 155 156 147 148 166 146 133 146 168 211 212 169 160 155 150 153 161 167 170 171 173 173 177 181 183 182 183 187 191 193 195 195 195 198 199 199 200 200 200 200 202 204 205 205 206 207 209 211 213 216 218 220 222 224 227 229 234 237 240 243 246 250 253 256 259 263 270 275 283 287 290 288 282 282 284 289 294 297 301 302 297 293 292 292 293 294 295 297 295 293
156 149 100 116 129 140 158 155 163 157 150 155 131 121 179 198 216 176 150 159 160 156 158 165 171 172 172 175 175 180 185 184 185 190 193 194 195 197 197 197 196 197 200 201 199 199 200 202 204 205 206 206 208 209 211 214 215 218 220 222 226 230 233 237 241 245 247 250 253 254 257 260 265 270 276 283 285 287 287 285 284 286 293 298 299 303 305 301 296 296 295 295 297 297 296 295 293
148 149 131 137 139 159 165 160 167 158 148 156 152 177 212 206 201 145 152 161 157 161 165 170 175 175 175 177 179 184 187 187 190 197 198 196 197 198 199 198 197 198 200 200 200 203 202 202 203 204 205 206 208 209 211 213 214 217 219 224 229 232 236 240 243 248 251 253 254 255 257 262 267 272 277 280 281 283 284 285 286 290 297 300 298 298 302 304 304 304 301 299 299 298 296 296 294
141 137 146 154 171 170 162 166 169 158 151 168 179 224 224 197 180 154 162 165 163 169 172 175 178 178 180 180 183 187 189 191 196 199 198 197 198 199 201 200 199 201 199 200 205 208 209 209 210 209 209 209 209 211 212 214 216 219 223 228 232 233 237 241 245 249 252 253 255 257 258 263 269 274 277 278 282 283 282 285 289 294 294 294 295 293 297 307 314 312 308 306 304 301 298 296 294
147 154 167 190 198 158 159 184 180 166 161 180 190 226 245 195 169 163 170 171 171 175 175 179 181 181 185 184 188 190 189 194 200 202 200 201 201 201 203 201 201 201 202 206 209 211 212 215 217 216 218 217 216 217 217 219 222 226 230 232 234 236 239 243 246 248 251 253 256 260 262 265 269 273 275 278 283 285 287 289 289 287 283 283 285 286 300 310 316 314 308 307 304 305 305 302 301
180 221 176 187 190 161 167 186 195 174 154 184 203 225 256 180 166 167 171 178 178 179 179 182 184 184 186 188 191 192 190 195 203 206 203 203 204 203 203 202 202 203 207 212 212 212 213 217 219 220 221 221 222 223 224 226 227 230 233 234 237 238 239 244 247 247 249 253 256 260 262 265 268 272 275 278 286 289 290 288 280 269 259 264 272 287 305 303 303 303 301 303 302 306 310 311 310
185 229 177 189 184 169 165 170 195 183 162 186 209 231 246 134 161 173 175 180 182 183 184 183 186 187 188 191 194 195 195 197 203 206 204 203 205 205 204 204 205 206 210 214 215 215 215 216 218 220 221 223 224 224 225 228 230 233 235 236 238 238 240 243 246 248 248 250 254 257 260 265 269 274 278 283 288 287 277 251 234 230 229 245 276 312 309 295 293 294 294 299 298 301 304 309 312
181 187 183 191 187 185 182 172 181 182 182 192 197 223 237 193 158 180 181 183 187 189 187 186 187 188 189 191 195 199 201 205 206 205 204 204 205 206 207 207 208 208 209 211 214 217 216 216 218 219 221 223 224 226 227 229 231 233 234 236 237 237 240 242 245 247 247 249 251 255 260 265 270 275 280 283 278 253 225 202 199 202 208 231 311 321 306 294 294 294 293 294 294 296 297 301 305
184 187 191 187 188 199 188 163 166 174 187 201 197 214 228 204 167 184 186 186 193 195 190 191 191 191 191 193 197 201 205 210 208 206 206 205 207 207 207 208 208 208 208 208 212 216 216 216 217 218 221 222 224 225 225 225 225 225 226 230 232 235 237 239 242 244 246 249 250 257 264 268 272 274 274 269 247 209 199 199 196 195 210 256 308 304 296 294 294 294 293 293 293 294 293 294 298
182 177 203 202 198 200 173 130 151 171 187 210 210 225 234 217 183 188 188 189 197 199 196 197 195 193 194 196 200 203 209 210 205 208 208 207 208 207 206 207 207 208 208 207 210 213 215 216 216 216 218 218 218 218 216 214 215 216 219 224 229 232 233 237 242 244 247 249 251 260 266 267 267 264 257 244 224 203 199 201 200 207 229 266 299 298 300 304 299 295 292 291 291 292 295 298 304
185 180 198 213 213 198 160 139 151 170 192 214 215 246 250 238 203 192 189 195 202 202 200 201 198 196 197 199 203 206 208 206 202 207 209 209 210 208 206 206 205 206 207 208 210 213 215 216 216 217 217 213 212 212 209 210 213 215 219 224 227 229 233 237 242 246 248 251 256 261 261 262 258 255 251 236 220 210 209 209 213 226 242 268 293 299 305 306 299 295 291 291 294 294 301 309 312
189 188 191 210 206 142 132 149 150 166 198 213 195 235 246 235 215 203 199 206 211 206 203 204 201 199 201 202 204 206 204 201 201 206 208 210 211 209 206 206 207 207 207 209 212 214 216 215 216 218 218 216 217 218 217 218 222 224 227 229 230 231 235 239 244 249 251 254 259 259 256 256 254 255 253 237 225 221 220 218 225 239 253 270 286 294 301 302 298 299 295 298 306 305 303 310 321
188 184 192 204 175 168 187 170 157 163 190 197 171 229 251 226 216 215 209 213 218 214 209 209 206 205 207 206 204 203 202 202 203 206 208 208 209 208 206 205 207 207 206 207 210 212 214 216 219 219 220 221 222 223 224 226 228 230 232 234 235 236 239 244 248 250 251 253 254 254 254 254 254 254 250 236 230 230 229 228 235 249 261 270 278 287 294 295 296 300 299 302 308 305 305 314 326
195 191 204 197 166 191 204 144 144 153 140 120 151 239 258 216 215 222 211 212 219 217 211 213 214 214 215 212 209 207 205 205 203 205 206 204 205 205 205 205 205 206 207 207 209 212 215 220 222 222 222 223 223 225 226 225 227 229 230 231 234 236 239 242 242 242 243 244 247 250 252 252 252 250 242 233 233 236 235 235 244 254 261 267 273 279 283 287 292 292 292 298 299 298 299 299 299
201 208 211 197 176 187 162 136 147 168 212 197 174 243 260 200 214 225 199 200 216 215 213 218 216 215 217 214 213 212 210 210 206 205 204 203 204 203 203 203 204 208 210 211 213 216 220 222 223 223 223 224 225 226 225 224 224 224 222 219 219 223 228 228 226 227 233 239 245 249 248 246 245 241 233 231 234 238 239 240 247 251 253 258 264 271 275 284 288 282 284 290 288 285 277 281 279
202 199 194 189 176 170 157 160 173 198 220 188 179 222 256 200 213 218 194 201 214 212 217 222 217 214 215 213 213 212 211 212 210 210 207 204 204 202 203 202 204 210 212 213 215 218 221 222 223 223 223 224 225 225 224 223 222 221 221 218 215 217 220 223 226 229 234 243 247 245 241 239 236 231 227 228 229 233 236 236 236 237 241 247 252 264 272 275 271 264 271 270 267 266 257 278 285
194 162 173 177 173 171 168 172 191 203 163 155 182 210 253 255 233 187 188 207 214 215 221 223 219 217 215 213 213 211 210 208 207 209 207 206 205 203 203 202 204 210 210 211 214 217 220 221 222 223 223 224 225 224 223 222 221 220 221 219 217 220 221 225 232 235 237 243 242 236 233 230 225 220 218 220 220 222 227 225 223 225 230 239 251 260 259 260 257 248 246 240 241 244 248 264 275
197 136 169 177 179 180 175 183 200 187 159 189 190 188 233 254 243 134 180 208 218 221 221 221 220 216 214 213 211 212 211 208 206 207 206 206 205 205 204 202 204 207 207 210 214 216 218 220 220 221 222 223 224 224 222 222 222 222 221 219 218 222 224 227 232 234 235 235 231 226 222 216 212 209 209 212 214 219 226 225 222 225 229 239 251 254 257 262 255 245 250 256 235 222 249 253 247
133 120 130 134 157 171 175 196 192 148 203 219 185 178 211 252 229 148 168 211 224 226 221 220 219 215 214 212 210 211 209 207 208 209 208 206 206 207 205 204 205 204 206 212 215 215 216 217 217 218 220 221 222 223 221 222 222 222 222 221 219 221 224 226 229 230 229 227 221 216 210 206 205 204 204 207 213 221 228 224 218 219 226 233 243 255 264 262 248 244 258 267 253 234 241 256 263
129 125 112 92 90 121 131 176 144 151 220 227 190 186 205 253 237 169 182 215 217 218 221 221 217 215 215 212 210 208 203 201 205 208 209 208 207 206 202 202 204 202 204 209 211 212 213 213 214 215 218 220 220 221 221 221 222 221 222 223 222 222 224 224 223 222 222 218 213 209 206 205 205 204 205 208 212 219 222 217 212 215 223 228 240 257 259 247 234 236 246 255 256 252 245 248 262
148 143 133 126 105 121 114 82 172 199 222 227 202 192 203 240 243 181 202 223 217 215 221 218 212 212 213 211 209 207 201 197 198 203 207 205 202 199 198 202 202 199 200 203 205 207 208 210 212 213 215 218 218 219 220 220 221 222 223 224 224 224 225 225 222 220 220 216 212 209 206 205 205 205 207 209 210 212 214 212 211 217 223 225 234 249 249 235 223 221 226 236 245 256 260 254 254
182 164 158 168 160 170 179 174 196 213 226 241 178 187 205 241 255 243 232 237 232 226 227 223 214 210 210 207 206 203 197 196 197 198 200 200 195 192 197 200 196 194 197 200 202 202 204 208 211 211 213 216 217 217 219 219 221 223 224 224 225 225 227 227 224 223 222 219 215 211 208 207 206 206 208 209 209 210 211 213 215 218 222 226 232 243 244 233 224 219 221 230 239 250 259 259 261
194 175 172 185 176 182 192 175 183 223 230 267 128 181 214 248 256 250 243 244 240 229 233 236 227 216 212 208 206 202 199 199 197 195 196 197 193 191 195 195 191 194 198 199 200 200 201 205 208 210 213 215 216 216 218 219 221 223 224 224 225 226 227 227 226 225 225 223 219 216 214 212 211 212 213 213 212 212 213 217 220 221 223 228 235 242 239 230 226 226 227 232 236 239 243 249 262
198 182 185 198 182 191 197 177 194 200 201 133 134 177 210 194 231 245 236 252 258 242 237 233 225 221 210 205 204 202 203 202 195 194 198 197 193 193 193 191 190 194 196 197 198 198 199 203 207 209 210 213 215 215 216 218 219 222 224 224 225 226 227 227 227 227 227 225 222 219 219 218 217 218 219 218 217 216 217 222 225 224 224 227 235 240 236 230 232 232 233 236 236 238 243 251 259
197 174 201 210 182 178 190 182 196 170 150 174 172 212 231 217 307 292 246 260 268 251 239 223 215 207 191 194 199 198 202 202 198 199 201 197 193 193 192 192 193 194 195 195 195 197 200 202 206 209 210 212 213 214 216 217 218 221 223 223 224 225 226 227 226 226 226 225 224 223 221 221 221 222 222 220 218 217 219 225 227 224 223 228 236 240 234 232 236 236 236 238 238 241 249 255 260
159 182 207 204 147 172 179 147 88 140 213 198 173 231 249 253 283 274 247 252 253 245 235 225 215 193 187 197 194 195 199 198 197 198 198 194 192 192 193 193 193 193 193 193 196 202 203 203 204 206 208 210 213 214 215 216 217 219 221 222 223 224 225 225 224 224 224 223 224 224 223 222 222 222 221 220 218 218 220 227 227 222 223 231 238 238 234 236 240 238 237 240 242 247 255 259 264
155 199 182 108 53 215 192 200 171 183 223 207 169 221 225 200 243 260 242 248 250 246 234 225 205 180 198 207 192 193 198 194 195 196 195 194 193 193 194 194 194 193 192 195 201 205 204 204 204 204 204 208 212 214 214 215 216 218 220 220 221 223 224 224 224 224 223 221 222 223 222 221 221 221 220 219 217 217 221 226 224 222 228 238 240 235 236 241 243 240 241 246 249 254 260 264 269
208 198 160 140 202 194 169 212 193 193 222 212 185 217 226 213 215 234 241 241 252 256 241 214 199 196 207 210 198 196 195 191 195 197 196 195 194 194 194 195 195 193 193 198 201 201 200 203 205 205 208 211 213 212 212 214 216 218 220 219 220 222 222 222 223 222 220 220 222 222 220 221 221 220 218 217 216 218 221 222 221 225 233 240 239 237 241 245 246 245 246 253 257 260 264 267 271
51 162 166 187 228 187 184 199 184 202 221 216 201 209 214 214 209 216 233 239 247 258 255 220 211 210 209 207 198 194 192 192 194 196 196 195 196 197 196 195 194 193 195 198 198 196 199 202 204 205 208 210 210 211 213 216 217 217 218 219 220 221 221 221 220 218 217 219 222 222 220 221 220 218 216 214 215 218 221 220 221 228 234 237 238 240 246 248 249 249 250 255 261 265 268 269 271
185 193 186 188 196 172 205 198 170 211 215 205 219 224 196 192 206 213 225 232 230 242 254 243 225 216 212 207 195 190 192 193 192 192 195 194 195 197 196 195 194 194 195 196 195 197 201 202 203 204 205 204 206 210 213 214 214 215 215 218 219 219 218 217 215 214 215 219 222 221 221 222 220 217 215 213 215 219 222 221 223 228 232 237 241 244 247 247 246 247 250 255 260 264 267 269 270
196 204 198 192 189 173 202 211 187 203 220 197 219 241 213 171 195 211 218 228 230 234 245 254 255 240 224 208 197 194 192 192 193 195 195 193 192 193 190 189 189 191 192 193 195 198 200 201 203 203 203 203 204 208 212 214 212 210 210 213 216 217 215 213 211 212 214 217 219 219 220 220 218 216 214 213 216 220 221 221 222 226 232 239 243 244 246 245 243 246 250 254 259 263 266 268 270
Height
771 772 773 774 774 775 777 776 790 791 791 808 807 806 805 796 796 800 803 802 802 800 793 793 793 794 798 803 807 810 811 811 812 816 822 819 814 816 815 815 816 815 816 817 818 819 820 822 822 823 825 825 826 827 829 830 831 832 833 835 835 837 838 839 840 841 841 842 843 844 845 846 847 848 848 849 850 851 851 852 853 853 853 853 853 853 854 854 854 854 854 854 854 854 854 853 853
771 773 773 775 774 777 779 775 794 800 798 813 808 805 803 795 799 802 803 802 801 799 792 793 795 797 797 799 802 807 811 810 809 811 814 814 815 816 816 817 817 817 817 818 819 820 821 822 823 824 825 826 827 828 830 830 831 832 834 835 836 837 839 840 841 842 842 843 843 844 846 847 848 848 849 850 851 852 852 853 854 854 854 854 854 855 855 855 855 855 855 855 855 855 855 854 854
771 773 773 776 774 776 779 779 797 805 806 816 811 803 799 799 802 800 798 798 797 794 793 794 796 799 800 803 805 809 815 811 808 809 812 814 815 816 818 818 818 818 818 819 820 821 822 823 824 825 826 827 828 828 830 832 833 834 835 836 837 839 841 842 843 844 843 843 844 846 847 848 849 849 850 852 852 853 854 854 855 855 855 855 856 856 857 857 856 856 856 856 856 855 855 855 855
771 773 773 774 777 779 784 790 798 803 810 815 811 803 798 800 800 798 797 794 793 791 794 796 801 801 800 809 809 811 815 812 810 810 812 814 815 817 818 819 819 819 819 820 821 822 823 824 825 826 827 828 828 830 831 833 834 835 836 837 838 839 841 843 845 845 844 845 846 847 848 849 850 851 852 853 854 854 855 855 856 856 856 857 857 858 858 857 857 857 857 857 856 856 856 856 855
772 774 774 773 781 786 788 796 799 801 808 807 807 803 797 798 797 798 797 794 792 792 795 797 805 804 800 808 808 812 815 812 811 810 812 815 816 818 819 820 820 820 821 821 822 823 824 825 826 827 828 829 829 831 833 835 836 837 838 838 839 840 842 845 846 846 846 846 847 848 849 850 851 852 853 854 855 855 856 856 857 857 858 858 858 859 859 858 858 858 858 857 857 857 856 856 856
772 774 774 773 780 784 791 799 801 802 801 798 801 800 795 795 796 797 797 795 793 792 794 796 804 805 807 809 806 810 812 811 813 812 813 816 818 819 820 821 821 822 823 823 824 824 824 826 827 829 830 830 832 833 835 836 837 838 839 840 841 842 845 847 847 847 847 847 849 850 851 852 853 854 855 855 856 856 857 857 858 858 859 859 859 860 859 860 859 859 859 858 858 857 857 857 857
771 775 776 780 783 784 795 802 802 804 798 794 796 795 794 794 794 796 798 798 797 795 795 797 798 804 813 810 808 810 809 811 811 813 815 816 819 820 821 822 823 824 825 826 827 827 827 827 828 830 831 832 834 835 836 837 838 839 840 841 843 845 846 847 847 848 848 849 850 851 852 853 854 855 856 856 857 857 858 858 859 859 860 860 860 861 861 861 861 861 860 860 859 859 858 858 858
771 776 778 786 792 791 798 802 802 804 797 792 791 792 793 793 793 795 798 799 801 799 798 799 795 805 815 809 812 812 809 812 811 815 816 817 820 820 822 823 824 825 826 827 828 830 830 830 830 831 832 834 835 837 838 839 840 841 842 843 845 847 847 848 848 849 849 850 851 852 853 854 855 856 856 857 857 858 858 859 859 860 861 861 862 861 862 862 862 862 861 861 860 860 860 859 859
771 776 781 789 795 796 800 804 803 801 797 793 792 792 791 792 793 795 799 799 799 800 801 799 795 807 816 811 815 812 810 814 813 816 817 819 820 821 823 824 825 826 827 828 829 831 832 833 833 834 835 836 838 839 840 841 842 843 844 845 847 848 848 849 849 850 851 851 852 853 854 855 856 856 857 858 858 858 859 859 860 861 862 862 863 862 862 862 862 862 862 861 861 861 861 861 860
773 777 784 791 795 801 805 806 804 800 798 794 793 793 792 792 793 795 798 800 799 800 802 797 798 807 814 816 817 812 812 815 815 818 819 820 821 822 824 825 827 827 828 829 830 832 833 835 835 836 837 838 840 840 841 842 843 844 845 846 847 848 849 849 850 851 851 852 853 854 855 855 856 857 858 858 858 859 859 860 861 862 862 863 863 863 863 862 862 862 862 861 862 862 862 861 860
780 781 783 793 799 805 807 806 806 802 798 794 794 792 790 791 793 797 798 801 800 801 801 798 805 809 812 818 817 813 813 815 816 818 820 821 823 824 825 826 828 828 830 830 831 833 834 835 836 838 838 839 840 841 843 843 845 846 846 847 848 848 849 850 850 851 852 853 854 854 855 856 857 857 858 858 859 859 860 861 861 862 863 863 863 862 861 861 860 860 861 861 862 862 861 860 859
784 786 785 796 801 803 803 806 807 803 799 797 798 792 788 790 794 799 799 802 801 802 801 799 805 805 814 821 816 814 814 816 817 818 820 822 823 825 826 827 829 830 831 831 832 833 835 836 837 838 839 840 841 842 843 844 845 846 847 847 848 849 849 850 851 852 853 853 854 855 856 856 857 857 858 858 859 860 860 861 862 863 863 863 862 861 860 859 859 859 861 861 861 861 860 858 858
782 785 786 797 799 800 802 805 806 805 804 798 796 791 788 792 796 797 797 801 801 804 802 797 798 801 815 820 815 815 814 816 817 819 821 822 824 826 827 828 830 831 831 832 833 834 835 836 838 839 840 841 842 843 844 845 846 846 847 848 849 850 850 851 852 853 853 854 855 855 856 857 857 858 858 859 860 860 861 862 862 863 863 863 861 859 859 859 859 859 860 861 860 860 859 858 858
776 779 783 798 801 800 801 804 806 807 805 796 792 790 789 793 794 793 795 801 802 802 799 794 795 803 815 819 818 816 813 816 817 819 821 822 825 826 828 829 830 831 832 833 834 835 836 837 838 839 840 842 843 844 845 845 846 847 848 848 849 850 851 852 852 853 854 854 855 855 856 857 857 858 858 859 860 861 861 862 863 863 863 862 861 859 859 859 859 859 859 860 860 860 859 859 858
770 774 780 796 802 800 801 802 803 804 802 793 791 789 791 793 791 794 794 800 802 795 795 795 795 804 812 816 818 812 811 815 816 819 821 823 825 826 828 829 831 832 833 834 834 836 836 837 838 839 841 842 843 844 845 846 847 847 848 849 850 850 851 852 852 853 854 854 855 855 856 857 857 858 858 859 860 861 862 862 863 863 863 862 861 860 859 859 858 858 859 859 859 859 859 858 858
766 770 782 796 801 802 800 798 801 804 798 791 789 787 795 795 790 796 793 793 800 794 795 799 797 801 806 807 809 807 810 814 816 819 820 823 825 827 829 829 831 832 833 834 835 836 836 838 838 840 841 842 843 844 845 846 847 848 848 849 850 851 851 852 853 853 854 855 855 856 856 857 857 858 858 859 860 861 861 862 863 863 863 861 861 859 858 859 858 858 858 858 859 858 859 858 857
764 772 788 797 800 800 796 796 799 798 793 790 789 788 797 800 793 793 789 789 798 798 797 799 797 797 800 802 804 807 811 814 816 819 820 823 824 826 829 830 831 832 833 834 835 836 837 838 839 840 841 842 843 844 846 846 847 848 849 850 850 851 852 853 853 854 854 855 855 856 856 857 857 858 858 859 860 860 861 862 863 864 862 859 860 859 858 859 858 858 858 858 858 857 857 857 857
769 781 792 795 796 792 786 787 786 784 788 790 789 788 794 800 797 793 792 797 799 801 800 799 799 797 799 801 804 809 812 814 816 818 819 822 823 825 827 829 830 831 833 834 835 836 837 838 839 840 841 842 844 844 846 846 848 848 849 850 851 852 852 853 853 854 855 855 856 856 856 857 857 858 858 859 859 860 860 861 862 864 861 857 858 859 858 858 858 858 858 857 857 856 856 856 856
772 783 791 790 786 781 774 775 777 778 783 786 787 787 790 795 795 793 798 805 802 804 806 803 804 803 802 803 806 810 812 814 816 817 819 820 822 824 825 827 829 831 832 833 835 835 836 838 839 840 841 842 844 845 846 846 848 848 849 850 851 852 852 853 853 854 854 855 855 856 856 857 857 858 858 858 859 859 860 861 861 863 861 857 857 858 858 858 857 857 857 856 856 855 855 855 855
770 778 789 783 774 774 770 770 773 773 775 783 788 787 790 791 791 793 799 805 804 804 805 804 808 806 804 804 806 810 812 814 816 817 819 820 822 823 824 826 827 829 831 833 834 835 836 837 839 840 841 842 843 844 845 846 847 848 849 850 851 851 852 852 853 854 854 855 855 856 856 857 857 857 858 858 858 859 859 860 861 861 861 858 857 857 857 856 856 856 855 855 855 855 855 855 854
769 773 781 774 768 773 769 767 769 770 772 779 786 788 792 790 788 793 797 806 807 801 796 797 802 803 803 804 805 809 811 813 816 817 818 820 822 823 824 826 827 829 831 833 834 835 836 837 838 839 841 842 843 844 845 846 847 848 849 849 850 851 851 852 853 853 854 854 855 855 856 856 857 857 857 858 858 858 859 859 860 860 860 859 858 857 856 856 855 855 855 855 855 855 854 854 854
769 769 768 766 768 771 766 763 767 769 772 778 785 788 789 788 789 792 794 802 801 792 789 790 793 796 799 801 804 807 809 812 814 816 818 820 821 823 824 826 828 830 831 832 833 834 835 837 838 839 840 841 843 844 845 846 846 847 848 849 850 850 851 852 852 853 853 854 854 855 855 856 856 856 857 857 857 858 858 858 859 859 859 858 857 857 856 856 855 855 855 855 854 854 854 854 853
770 769 763 764 765 766 764 763 766 768 774 780 783 782 783 789 792 790 791 793 788 783 783 787 790 793 796 799 803 806 808 810 812 815 816 818 820 821 823 825 827 829 831 832 833 834 835 836 837 838 840 841 842 843 844 845 846 847 848 848 849 850 851 851 852 852 853 853 854 854 855 855 855 856 856 856 857 857 857 857 858 858 857 857 856 856 855 855 855 854 854 854 854 854 853 853 853
768 770 764 763 762 762 762 762 764 765 771 775 776 779 784 790 791 789 790 788 784 781 781 785 790 793 796 798 801 803 806 808 811 813 816 817 819 821 823 825 827 829 830 831 832 834 834 836 837 838 839 840 841 842 844 844 845 846 847 848 849 849 850 851 851 852 852 853 853 854 854 854 855 855 855 855 856 856 856 856 856 857 856 856 855 855 854 854 854 854 854 854 853 853 853 853 853
768 768 763 762 762 761 759 761 764 765 769 771 775 782 785 785 786 789 790 786 784 781 782 786 790 794 796 798 800 802 805 807 810 813 815 817 819 821 823 825 826 828 828 830 831 832 833 835 836 837 838 839 840 842 843 844 845 845 846 847 848 849 850 850 851 851 852 852 853 853 853 854 854 854 855 855 855 855 855 855 855 855 855 855 855 854 854 854 853 853 853 853 853 852 852 852 852
763 763 762 763 763 760 760 762 764 767 769 772 780 787 786 783 785 792 788 785 785 783 785 788 791 795 797 798 800 802 804 807 809 812 814 817 819 821 822 824 825 826 827 828 830 831 832 833 834 836 837 838 839 841 842 843 844 845 845 846 847 848 849 849 850 850 851 851 852 852 852 853 853 853 854 854 854 854 854 854 854 854 854 854 854 854 853 853 853 853 853 852 852 851 851 851 850
757 760 763 762 762 760 760 764 765 767 770 772 780 789 788 783 788 795 788 783 785 786 789 790 792 796 797 798 800 801 804 805 808 810 813 816 818 819 820 822 823 824 826 827 828 829 830 832 833 834 835 837 838 839 840 842 843 843 844 845 846 847 848 848 849 849 850 850 851 851 851 852 852 852 853 853 853 853 853 853 853 853 854 854 853 853 853 853 853 852 852 851 851 850 850 850 849
756 759 765 765 763 763 762 766 767 769 775 774 777 789 790 788 791 790 784 783 784 787 792 792 794 796 796 799 800 802 803 804 807 809 811 813 814 816 818 819 821 822 824 825 826 828 829 830 831 833 834 835 837 838 839 840 841 842 843 844 845 846 846 847 847 848 848 849 849 850 850 851 851 852 852 852 852 853 852 852 853 853 853 853 853 852 852 852 852 851 850 850 849 849 849 849 849
756 757 770 774 768 771 769 768 768 769 778 773 776 796 799 794 791 783 780 783 784 788 792 793 795 796 797 798 800 801 802 804 807 808 809 810 812 814 815 817 818 820 821 823 825 826 827 829 830 831 832 834 835 836 838 839 840 841 842 843 844 844 845 846 846 847 847 848 848 849 849 850 850 851 851 852 851 852 851 852 852 852 852 852 852 852 851 851 850 850 849 849 849 848 849 849 848
760 759 768 777 779 781 772 769 769 771 777 769 777 803 801 790 787 781 780 782 786 791 793 794 795 796 797 798 799 801 801 803 805 806 807 809 811 812 813 815 817 818 820 822 823 824 825 827 828 829 831 832 833 835 836 837 838 839 841 841 842 843 844 845 845 846 846 847 847 848 848 849 850 850 850 851 850 851 851 851 851 851 851 851 851 850 850 850 850 849 849 849 848 848 848 848 848
764 768 770 776 786 787 774 770 772 777 780 767 778 801 792 783 784 781 780 781 785 791 792 793 794 795 796 797 799 800 800 802 803 804 806 807 809 811 812 814 815 817 818 819 820 822 823 824 826 827 828 830 831 833 834 835 837 838 839 840 841 842 843 843 844 845 845 846 846 847 848 848 849 849 849 849 849 850 850 850 851 851 850 850 850 850 849 849 849 849 848 848 848 848 848 848 848
767 777 784 781 782 785 778 772 771 777 780 771 782 799 788 779 781 779 780 781 784 789 791 792 793 794 795 796 797 799 799 800 802 803 804 806 807 809 810 812 813 815 816 817 819 820 822 823 824 826 827 829 830 831 833 834 835 836 837 838 839 841 841 842 843 844 844 845 845 846 847 847 848 848 848 848 849 849 849 849 849 849 849 849 849 849 849 849 848 848 848 848 848 847 847 847 847
774 777 787 785 782 787 784 775 769 771 779 778 783 792 787 780 778 777 778 780 784 788 790 791 792 793 793 795 796 797 799 799 800 800 801 803 805 807 808 810 811 813 814 815 817 818 820 821 823 824 826 827 829 830 831 833 834 835 836 837 839 839 840 841 842 842 843 844 844 845 845 846 847 847 847 847 847 848 848 848 848 848 848 848 848 848 848 848 848 848 848 847 847 847 846 846 846
782 779 782 782 780 785 786 781 772 769 779 783 783 786 785 781 779 778 777 779 783 787 789 789 790 792 792 794 795 796 797 798 797 797 799 801 803 805 806 808 809 811 812 813 815 816 818 820 821 823 824 826 827 829 830 832 833 834 835 836 837 838 839 840 841 841 842 843 843 844 844 845 846 845 846 846 846 847 847 847 848 847 847 847 848 848 848 848 847 848 847 847 846 846 846 845 845
781 782 782 783 781 781 782 780 772 770 779 783 787 789 782 779 780 780 778 778 783 785 786 787 788 790 791 792 793 794 795 795 794 794 797 799 801 803 805 806 808 809 811 812 813 815 816 818 819 821 823 824 826 827 829 831 832 833 834 835 836 837 838 838 839 840 841 841 842 843 843 844 844 844 844 845 845 845 846 846 847 847 847 847 847 847 847 847 847 847 847 846 846 845 845 845 844
770 773 774 778 780 779 775 771 765 768 781 783 783 786 779 779 782 781 780 779 782 784 784 786 787 788 789 790 791 791 792 792 791 793 796 797 799 801 803 805 806 808 809 810 812 813 815 816 818 819 821 822 824 826 828 829 831 832 833 834 834 835 836 837 838 838 839 840 841 841 842 842 843 843 843 844 844 844 845 846 846 846 846 846 846 846 847 846 846 846 845 845 845 845 844 844 844
761 769 773 772 773 776 770 770 765 764 781 785 778 781 780 779 782 780 780 781 783 785 785 786 786 786 787 788 789 789 789 788 788 792 794 796 798 799 801 803 805 806 807 809 810 811 813 814 816 817 819 821 823 824 826 827 829 830 831 831 832 833 834 835 836 837 838 838 839 840 841 841 841 842 843 843 843 843 844 844 845 845 845 845 845 845 846 845 845 845 844 844 844 843 843 843 843
761 767 773 773 773 774 768 769 767 763 778 785 779 784 784 780 782 780 780 783 782 780 782 784 783 784 785 785 786 786 786 786 787 790 791 794 796 797 799 800 802 804 805 806 808 809 811 812 814 815 817 819 820 822 824 825 826 827 828 829 830 832 833 834 835 836 836 837 838 839 839 840 840 841 842 842 842 842 843 843 843 844 844 844 844 844 844 844 844 844 844 843 843 843 842 842 842
763 764 771 776 773 774 773 770 767 766 777 783 781 787 784 778 780 779 778 780 777 775 776 779 780 783 783 782 783 783 785 786 786 787 788 790 792 794 797 798 799 801 802 804 805 807 809 810 812 813 815 817 818 820 821 822 824 825 827 828 829 831 832 833 834 834 835 836 836 837 838 839 839 840 840 840 840 841 841 842 842 843 843 843 843 843 843 844 843 843 843 843 843 842 842 842 842
763 764 770 775 770 775 780 775 770 769 774 779 781 786 783 778 780 778 775 774 774 774 773 775 776 778 778 777 778 780 782 784 784 784 784 786 789 791 793 794 796 798 800 801 803 805 806 808 809 811 813 814 816 817 819 821 823 824 826 827 829 830 831 831 832 832 833 834 835 836 837 837 838 838 839 839 839 840 840 841 841 842 842 842 843 843 843 843 843 843 843 843 843 843 842 842 842
763 761 764 768 768 770 772 773 773 773 777 776 780 792 786 777 781 778 772 772 773 773 773 774 773 772 773 774 775 776 776 778 780 781 781 782 784 787 789 791 793 795 797 798 799 801 803 804 806 808 810 812 813 815 817 819 821 823 825 826 828 828 829 830 830 831 831 832 833 834 835 836 836 837 837 838 838 839 839 840 840 841 841 842 842 843 843 843 843 843 843 843 843 843 842 842 842
765 760 756 758 762 765 767 771 775 785 791 777 781 806 796 775 778 775 770 774 774 772 773 773 772 770 771 773 773 772 772 773 774 776 777 778 780 783 786 788 790 792 793 794 796 798 800 802 804 806 808 809 811 813 815 817 819 821 822 824 825 826 827 827 828 829 830 831 832 833 833 834 835 835 836 837 837 838 838 839 839 840 841 841 842 842 842 842 842 842 842 843 843 843 843 842 842
766 756 749 753 757 762 768 770 775 788 792 773 773 799 798 779 775 771 769 774 774 772 772 769 768 768 767 768 768 768 769 769 770 771 772 775 777 779 781 784 786 787 789 791 793 795 797 799 801 803 805 807 809 811 813 815 816 818 819 821 822 823 824 824 825 827 829 830 831 831 832 832 833 834 834 835 836 837 837 838 839 840 840 841 841 842 842 842 842 842 842 842 843 843 843 843 842
761 747 745 754 757 761 765 766 773 776 778 776 772 782 795 788 774 767 768 774 775 772 770 766 763 762 762 762 762 762 764 765 766 768 769 770 772 774 776 778 781 783 785 788 790 792 793 796 798 800 803 804 806 808 810 812 814 815 817 818 820 821 822 823 824 826 827 828 829 829 830 831 832 832 833 834 835 835 836 837 838 838 839 840 840 841 841 841 841 841 841 841 842 842 843 843 843
752 744 745 750 752 757 758 762 769 769 778 792 784 780 800 796 771 767 770 773 776 770 764 761 757 756 756 756 757 756 757 759 760 763 764 765 767 769 771 773 776 779 782 784 786 788 790 793 796 798 800 802 804 806 808 809 811 813 814 816 817 818 820 821 822 824 825 826 827 828 828 829 830 831 832 833 833 834 835 836 836 837 838 839 840 840 840 840 840 840 840 841 841 842 842 842 842
745 744 746 749 752 755 758 763 768 775 788 795 786 783 799 793 767 767 777 775 770 760 753 752 749 749 750 750 751 751 753 754 755 757 758 760 762 764 767 770 773 776 778 780 783 785 788 790 793 795 797 799 801 803 805 807 809 810 812 813 815 816 818 819 821 822 823 824 825 826 827 828 829 830 830 831 832 833 834 834 835 836 837 838 839 839 839 839 839 840 840 840 841 841 841 842 842
740 745 751 758 763 762 766 769 770 789 800 788 778 777 788 790 766 759 768 760 750 747 746 745 743 744 744 744 745 746 748 750 751 753 754 756 758 761 765 768 770 772 775 777 780 782 785 787 790 792 794 796 798 801 803 804 806 808 809 811 812 814 816 817 818 819 821 822 823 824 825 826 827 828 829 830 831 832 833 833 834 835 836 836 837 838 839 839 839 839 839 840 840 841 841 842 842
739 745 752 765 775 773 779 782 781 800 804 780 770 770 783 791 766 747 747 737 733 737 738 737 737 738 737 737 738 739 742 744 747 750 751 753 756 759 763 764 766 769 772 774 777 779 782 784 786 789 791 793 795 798 800 802 804 805 806 808 810 812 813 814 816 817 818 820 821 822 824 825 826 827 828 829 830 831 832 832 833 834 834 835 836 837 837 838 838 838 839 839 840 840 841 841 842
741 746 754 771 788 791 796 799 795 800 793 775 770 774 783 782 756 741 740 733 729 728 725 725 726 728 730 730 732 733 736 739 742 746 747 749 752 755 758 760 763 766 768 770 773 776 778 780 783 785 787 790 792 794 796 798 800 802 804 806 807 809 810 811 813 814 816 817 819 821 822 823 825 826 827 828 829 830 831 831 832 833 833 834 834 835 836 836 837 837 838 839 839 840 840 841 841
745 746 753 769 787 799 807 808 805 800 785 772 772 778 783 775 749 735 733 726 720 719 718 719 720 723 726 726 728 731 732 735 737 739 742 745 746 749 752 755 758 761 763 767 769 772 775 777 779 782 784 786 788 791 793 795 797 799 801 803 804 806 807 809 810 812 813 815 817 818 820 821 823 824 825 826 827 828 829 830 831 831 832 833 833 834 834 835 836 836 837 838 838 839 840 840 841
742 736 741 755 766 779 793 797 797 792 782 779 782 781 778 767 745 728 722 717 713 713 714 716 718 720 721 723 726 728 730 731 732 734 736 738 740 743 746 749 753 756 759 762 765 768 770 772 775 777 780 782 785 787 789 792 794 796 798 799 801 803 804 806 807 809 811 813 815 817 818 820 821 822 823 824 825 827 828 829 830 831 831 832 833 833 833 834 835 835 836 836 837 838 838 839 840
740 732 740 750 745 750 769 777 773 774 780 785 786 775 758 746 733 720 718 718 713 712 711 713 717 717 719 723 723 724 726 726 728 730 731 732 734 738 741 744 747 751 754 758 760 763 765 767 770 772 775 778 781 784 786 788 791 793 794 796 798 799 801 803 804 807 809 811 813 815 816 818 819 820 821 823 824 825 827 828 829 830 831 832 832 832 833 833 833 834 834 835 835 836 836 837 838
741 742 745 741 730 735 760 776 772 772 780 780 777 768 752 744 735 718 716 719 713 711 711 710 712 714 717 720 718 719 720 720 722 724 725 727 729 732 736 739 742 746 750 753 755 757 759 762 765 768 772 775 777 779 782 785 787 789 791 792 794 796 797 800 802 804 807 809 812 813 815 816 817 819 820 821 823 824 826 827 828 829 830 831 831 832 832 832 832 833 833 834 834 834 835 835 835
736 743 735 731 735 737 749 770 780 782 783 776 772 766 755 756 747 723 718 722 715 709 708 707 710 713 715 713 711 712 712 713 716 717 719 722 723 727 730 733 737 740 743 746 748 751 755 758 761 765 768 771 773 775 778 781 783 785 787 789 791 793 795 798 801 803 806 809 811 812 814 815 816 817 819 820 822 823 825 827 828 829 829 830 830 831 831 831 832 832 833 833 834 834 834 834 834
722 725 717 726 748 753 754 765 775 782 784 775 772 766 755 753 744 725 720 720 712 706 704 706 710 710 709 707 706 707 707 710 712 713 716 718 719 722 725 729 732 736 739 741 744 749 752 756 759 761 764 766 769 773 776 778 780 782 784 786 788 791 793 797 799 802 805 808 810 811 812 814 815 816 818 819 821 822 823 825 826 827 828 829 830 830 831 831 831 832 833 833 833 833 833 833 833
718 718 717 723 733 741 746 749 752 764 775 773 773 772 757 741 730 722 718 712 707 704 701 703 704 702 702 702 701 704 705 706 707 708 711 712 714 717 720 724 728 731 734 737 742 746 749 752 755 757 760 763 766 769 771 774 776 779 782 784 786 789 791 794 797 801 804 805 807 809 810 812 813 815 816 818 819 820 821 823 824 826 827 828 829 829 830 830 830 831 832 832 833 833 833 832 832
723 726 729 729 728 730 735 738 738 745 760 767 770 768 750 726 716 715 710 704 701 699 696 696 695 694 694 694 695 698 700 700 702 703 705 707 709 712 716 721 725 728 732 735 740 743 746 749 751 753 757 760 763 766 768 771 773 777 780 781 784 786 789 793 796 799 801 802 804 806 808 811 812 814 815 816 817 818 820 821 822 824 826 827 828 828 829 829 830 830 830 831 832 832 832 831 831
714 721 724 724 725 731 741 748 742 737 744 752 757 758 738 711 704 705 701 697 694 691 692 693 690 689 689 689 691 693 694 696 697 698 700 702 705 709 713 718 722 726 729 733 737 739 742 745 747 750 753 756 759 762 764 767 771 775 778 779 781 785 788 791 793 795 796 798 801 803 806 808 811 812 813 814 816 817 818 819 821 823 825 826 827 828 828 828 829 829 829 830 830 830 831 830 830